[[{"header":{"parameterUnit":"m.s-1","parameterCategory":2,"la1":30.2991,"la2":30.254,"lo1":-89.0895,"lo2":-89.0444,"dy":0.0017,"dx":0.0017,"nx":28,"ny":28,"refTime":"2025-12-27T09:00:00:Z","depth":"0","parameterNumber":2,"parameterNumberName":"U-component_of_CURRENTS"},"data":[0,0,0,0,0,0,0,0,0,0,0,0,0,0,0,0,0,0,0,0,0,0,0,0,0,0,0,0,0,0,0,0,0,0,0,0,0,0,0,0,0,0,0,0,0,0,0,0,0,0,0,0,0,0,0,0,0,0,-0.322,-0.3221,0,-0.3308,-0.3309,-0.3309,-0.3255,-0.3253,-0.3251,-0.3249,-0.3087,-0.3084,-0.3082,0,0,0,0,0,0,0,0,0,0,0,0,0,-0.2975,-0.298,-0.3219,-0.3221,-0.3223,-0.3308,-0.3309,-0.3309,-0.3255,-0.3253,-0.325,-0.3248,-0.3088,-0.3085,-0.3082,0,0,0,0,0,0,0,0,0,0,0,0,0,-0.3067,-0.2981,-0.3219,-0.3213,-0.3214,-0.3308,-0.3309,-0.3309,-0.3255,-0.3253,-0.325,-0.3247,-0.3089,-0.3085,-0.3081,-0.3111,0,0,-0.3069,-0.3067,0,0,0,0,0,0,0,0,-0.3061,-0.3074,-0.3212,-0.3213,-0.3215,-0.3275,-0.3164,-0.3234,-0.3256,-0.3231,-0.3249,-0.3246,-0.3134,-0.3126,-0.3141,-0.3104,-0.3097,-0.3069,-0.3066,-0.3065,-0.3064,0,0,0,0,0,0,0,-0.3055,-0.307,-0.3246,-0.3214,-0.3216,-0.3197,-0.3206,-0.3177,-0.3185,-0.3233,-0.3231,-0.3255,-0.3131,-0.3145,-0.3136,-0.3094,-0.3069,-0.3065,-0.3063,-0.3061,-0.3078,-0.3081,0,0,0,0,0,0,-0.3067,-0.3065,-0.3243,-0.325,-0.3139,-0.3204,-0.3214,-0.3251,-0.3191,-0.3184,-0.3258,-0.3253,-0.3153,-0.3141,-0.313,-0.3133,-0.3065,-0.3061,-0.3059,-0.3075,-0.3079,-0.3082,0,0,0,0,0,0,-0.3062,-0.3083,-0.324,-0.3164,-0.3184,-0.3212,-0.3254,-0.3255,-0.3257,-0.3214,-0.3199,-0.3258,-0.315,-0.3135,-0.3122,-0.3126,-0.3059,-0.3056,-0.3072,-0.3076,-0.308,-0.3157,0,0,0,0,0,0,-0.3054,-0.308,-0.3087,-0.3166,-0.3189,-0.3296,-0.3258,-0.3259,-0.3281,-0.3275,-0.3211,-0.3194,-0.3147,-0.3129,-0.3119,-0.312,-0.3053,-0.3068,-0.3074,-0.3079,-0.3151,-0.3163,-0.3173,0,0,0,0,0,-0.3045,-0.3075,-0.3087,-0.3108,-0.3206,-0.3298,-0.3307,-0.331,-0.3284,-0.3298,-0.3267,-0.3195,-0.3154,-0.3129,-0.3116,-0.3115,-0.3066,-0.3072,-0.3079,-0.3145,-0.316,-0.3173,0,0,0,0,0,0,-0.2959,-0.3076,-0.309,-0.3148,-0.3218,-0.3292,-0.3299,-0.3317,-0.331,-0.3284,-0.3231,-0.3215,-0.3212,-0.317,-0.3143,-0.3144,-0.3098,-0.3103,-0.3154,-0.3167,-0.3179,-0.3102,-0.3049,0,0,0,0,0,-0.2953,-0.3004,-0.3112,-0.3151,-0.3189,-0.3245,-0.3272,-0.3293,-0.3315,-0.3308,-0.3281,-0.3248,-0.3236,-0.3204,-0.3193,-0.3183,-0.3071,-0.318,-0.3191,-0.3201,-0.3136,-0.3017,-0.3008,-0.3103,-0.3102,-0.3102,0,0,-0.2923,-0.2998,-0.3019,-0.3136,-0.3178,-0.3211,-0.3251,-0.3306,-0.331,-0.3289,-0.327,-0.3292,-0.3252,-0.3256,-0.3247,-0.3207,-0.3125,-0.3209,-0.3217,-0.3144,-0.3022,-0.3011,-0.3002,-0.3107,-0.3106,-0.3105,0,0,-0.288,-0.2965,-0.2978,-0.3043,-0.3135,-0.3189,-0.3208,-0.3298,-0.331,-0.3342,-0.3328,-0.3361,-0.333,-0.3318,-0.3299,-0.3368,-0.3208,-0.3368,-0.3329,-0.3218,-0.3206,-0.3194,-0.3059,-0.3034,-0.3351,-0.3351,-0.3351,0,-0.282,-0.2854,-0.2992,-0.3019,-0.3026,-0.3172,-0.3149,-0.3226,-0.3296,-0.3271,-0.3331,-0.3321,-0.3352,-0.3297,-0.3362,-0.3385,-0.3266,-0.3276,-0.3223,-0.3209,-0.3195,-0.3059,-0.3031,-0.3355,-0.3355,-0.3354,-0.3354,0,-0.2777,-0.2795,-0.2814,-0.2881,-0.2931,-0.2952,-0.3075,-0.3114,-0.3168,-0.3217,-0.3226,-0.3319,-0.3275,-0.3352,-0.3385,-0.3318,-0.3248,-0.3266,-0.3169,-0.3189,-0.3047,-0.3016,-0.3362,-0.336,-0.3359,-0.3358,0,0,-0.2629,-0.2743,-0.2738,-0.2714,-0.2839,-0.287,-0.2899,-0.293,-0.2892,-0.3043,-0.2968,-0.3118,-0.3175,-0.3163,-0.3237,-0.3208,-0.3114,-0.3198,-0.319,-0.3026,-0.2801,-0.273,-0.2689,-0.309,-0.3085,-0.3081,-0.2745,0,-0.2509,-0.2493,-0.2583,-0.2532,-0.2519,-0.263,-0.2634,-0.2699,-0.2771,-0.2774,-0.2908,-0.2916,-0.3099,-0.3101,-0.3107,-0.3114,-0.3029,-0.3199,-0.2834,-0.2822,-0.2726,-0.265,-0.2564,-0.2252,-0.2713,-0.2708,-0.2704,0,-0.2399,-0.2398,-0.2325,-0.2314,-0.2311,-0.2316,-0.2283,-0.2319,-0.2396,-0.2443,-0.2495,-0.2601,-0.265,-0.2809,-0.2739,-0.2818,-0.2786,-0.2802,-0.2788,-0.2649,-0.2691,-0.2306,-0.2177,-0.2186,-0.2655,-0.2659,-0.2662,0,-0.2205,-0.2195,-0.2112,-0.212,-0.2167,-0.2114,-0.2132,-0.2192,-0.2211,-0.2236,-0.2246,-0.2286,-0.2331,-0.2309,-0.2452,-0.253,-0.2332,-0.2426,-0.2298,-0.2292,-0.2105,-0.2091,-0.1896,-0.2266,-0.2267,-0.2268,-0.2269,0,-0.2037,-0.1966,-0.2018,-0.1982,-0.1879,-0.1953,-0.1873,-0.19,-0.1943,-0.1955,-0.2079,-0.2075,-0.2208,-0.2186,-0.2264,-0.2177,-0.2151,-0.2216,-0.2176,-0.2139,-0.2132,-0.2044,-0.2103,-0.2255,-0.2258,-0.226,-0.2262,0,-0.1871,-0.1898,-0.1823,-0.1816,-0.1811,-0.1755,-0.1785,-0.1757,-0.1787,-0.1795,-0.1805,-0.1868,-0.1804,-0.1896,-0.1843,-0.1917,-0.181,-0.1818,-0.1769,-0.1731,-0.1637,-0.1705,-0.1391,-0.1362,-0.1556,-0.1552,-0.1549,0,-0.1786,-0.1736,-0.1724,-0.1708,-0.1711,-0.1666,-0.1665,-0.1696,-0.171,-0.1689,-0.1693,-0.1605,-0.1551,-0.1424,-0.1481,-0.1418,-0.1557,-0.1339,-0.1506,-0.1539,-0.1586,-0.1668,-0.1676,-0.1289,-0.1284,-0.128,-0.1276,0,-0.1624,-0.1641,-0.1604,-0.1587,-0.1574,-0.1562,-0.1562,-0.1555,-0.1602,-0.1552,-0.1451,-0.1347,-0.1219,-0.1087,-0.104,-0.1079,-0.1307,-0.1245,-0.1269,-0.1315,-0.1389,-0.1375,-0.1613,-0.1238,-0.1241,-0.1244,-0.1246,-0.1248,-0.1515,-0.148,-0.1468,-0.1436,-0.1444,-0.1447,-0.1386,-0.141,-0.1351,-0.1242,-0.121,-0.095,-0.0802,-0.0684,-0.0757,-0.0829,-0.0944,-0.0896,-0.0952,-0.1015,-0.1048,-0.1194,-0.0813,-0.0814,-0.0815,-0.0816,-0.0817,0,-0.1352,-0.1341,-0.1319,-0.1284,-0.1257,-0.1304,-0.1303,-0.1222,-0.1099,-0.0988,-0.0805,-0.0456,-0.0346,-0.0368,-0.0481,-0.0561,-0.0651,-0.0628,-0.0735,-0.0745,-0.0816,-0.0875,-0.0503,-0.0503,-0.0503,-0.0503,-0.0503,-0.0503,-0.126,-0.119,-0.1188,-0.109,-0.108,-0.0992,-0.0958,-0.0854,-0.0743,-0.0444,-0.02,-0.0037,-0.0029,-0.022,-0.0428,-0.0488,-0.0568,-0.0531,-0.0609,-0.0714,-0.0747,-0.0778,-0.0845,-0.0473,-0.0473,-0.051,-0.051,-0.051]},{"header":{"parameterUnit":"m.s-1","parameterCategory":2,"la1":30.2991,"la2":30.254,"lo1":-89.0895,"lo2":-89.0444,"dy":0.0017,"dx":0.0017,"nx":28,"ny":28,"refTime":"2025-12-27T09:00:00:Z","depth":"0","parameterNumber":3,"parameterNumberName":"V-component_of_CURRENTS"},"data":[0,0,0,0,0,0,0,0,0,0,0,0,0,0,0,0,0,0,0,0,0,0,0,0,0,0,0,0,0,0,0,0,0,0,0,0,0,0,0,0,0,0,0,0,0,0,0,0,0,0,0,0,0,0,0,0,0,0,0.0554,0.0557,0,0.0808,0.0811,0.0814,0.0963,0.0963,0.0964,0.0965,0.1134,0.1137,0.1141,0,0,0,0,0,0,0,0,0,0,0,0,0,0.0421,0.0422,0.0554,0.0557,0.056,0.0808,0.0811,0.0815,0.0963,0.0963,0.0964,0.0965,0.1132,0.1137,0.1142,0,0,0,0,0,0,0,0,0,0,0,0,0,0.0556,0.0422,0.0553,0.0664,0.0677,0.0807,0.0811,0.0815,0.0962,0.0963,0.0964,0.0965,0.1131,0.1136,0.1142,0.1159,0,0,0.116,0.1163,0,0,0,0,0,0,0,0,0.0548,0.0561,0.0645,0.0657,0.0671,0.0855,0.0827,0.0926,0.0962,0.0853,0.0965,0.0966,0.1032,0.1046,0.1092,0.1167,0.1174,0.1161,0.1164,0.1167,0.1168,0,0,0,0,0,0,0,0.0538,0.0552,0.0654,0.0648,0.0664,0.0779,0.0797,0.0848,0.0932,0.0863,0.0875,0.0903,0.1039,0.1086,0.1097,0.1177,0.116,0.1166,0.1169,0.1171,0.1315,0.1315,0,0,0,0,0,0,0.0495,0.0542,0.0646,0.0662,0.0611,0.0779,0.08,0.0795,0.0934,0.0957,0.0902,0.0909,0.1076,0.109,0.1103,0.1114,0.1167,0.1172,0.1175,0.1315,0.1315,0.1316,0,0,0,0,0,0,0.049,0.05,0.0636,0.0611,0.0636,0.0778,0.0773,0.0799,0.0845,0.0965,0.0986,0.092,0.1077,0.1095,0.116,0.1122,0.1175,0.118,0.1314,0.1315,0.1315,0.1144,0,0,0,0,0,0,0.0485,0.0496,0.0467,0.0606,0.0635,0.0688,0.0773,0.0803,0.0861,0.0873,0.0987,0.1005,0.108,0.1151,0.1166,0.1131,0.1185,0.1314,0.1315,0.1315,0.115,0.1139,0.113,0,0,0,0,0,0.0478,0.0426,0.0463,0.0476,0.0592,0.0687,0.0712,0.082,0.086,0.0866,0.0963,0.1001,0.1165,0.1156,0.1173,0.1139,0.1314,0.1314,0.1315,0.1154,0.1141,0.113,0,0,0,0,0,0,0.0358,0.0441,0.0484,0.046,0.0557,0.0712,0.0718,0.0802,0.0887,0.0889,0.1007,0.1031,0.1074,0.1139,0.1126,0.1189,0.1244,0.1248,0.1116,0.1104,0.1094,0.1104,0.1189,0,0,0,0,0,0.0314,0.0296,0.0416,0.0402,0.043,0.0571,0.0619,0.0697,0.0799,0.0838,0.0931,0.1022,0.1092,0.1122,0.1198,0.1223,0.1265,0.1217,0.1207,0.1198,0.1222,0.1268,0.1262,0.1318,0.1318,0.1318,0,0,0.0275,0.0311,0.0309,0.0375,0.045,0.0493,0.0601,0.0655,0.0707,0.0837,0.0908,0.0987,0.1096,0.1137,0.116,0.1182,0.1188,0.1198,0.1189,0.122,0.1268,0.1262,0.1257,0.1318,0.1318,0.1318,0,0,0.0195,0.0203,0.0172,0.0232,0.0323,0.0412,0.0418,0.056,0.0626,0.0707,0.0814,0.0878,0.099,0.1065,0.1115,0.1096,0.1138,0.1108,0.1055,0.1096,0.1091,0.1088,0.1052,0.1047,0.1096,0.1096,0.1096,0,0.0146,0.0132,0.0185,0.0183,0.0239,0.0363,0.0386,0.046,0.0617,0.0685,0.0701,0.0902,0.0959,0.1045,0.1036,0.1068,0.1084,0.1077,0.1078,0.1077,0.1076,0.1041,0.1038,0.1088,0.1089,0.109,0.109,0,0.0071,0.0066,0.0049,0.0089,0.0142,0.0177,0.0294,0.0358,0.0447,0.0559,0.0667,0.0765,0.0898,0.0898,0.0957,0.099,0.0994,0.1054,0.1093,0.1059,0.1025,0.1024,0.1076,0.1079,0.1082,0.1084,0,0,-0.002,-0.0005,-0.0003,0.002,0.0105,0.0156,0.021,0.0341,0.0419,0.0515,0.0621,0.0707,0.0786,0.0851,0.092,0.094,0.0892,0.0982,0.0988,0.0916,0.0926,0.0897,0.0893,0.0951,0.0952,0.0953,0.0871,0,-0.0068,-0.0099,-0.0061,-0.0037,-0.0022,0.0097,0.0155,0.0276,0.0401,0.0518,0.0616,0.0725,0.0758,0.081,0.0835,0.0909,0.0899,0.0906,0.0999,0.1001,0.0957,0.0896,0.0972,0.0907,0.0871,0.0871,0.0871,0,-0.0122,-0.013,-0.0138,-0.0062,-0.0043,-0.0014,0.0144,0.0218,0.0391,0.0487,0.0606,0.0711,0.0769,0.0798,0.0861,0.0865,0.0882,0.0911,0.091,0.0961,0.0975,0.0958,0.0908,0.098,0.0871,0.0871,0.0871,0,-0.0168,-0.0158,-0.0163,-0.0142,-0.0062,-0.0025,0.004,0.0209,0.0294,0.0471,0.0543,0.0668,0.0707,0.0773,0.0809,0.0847,0.085,0.0917,0.0896,0.089,0.1018,0.1024,0.1041,0.0953,0.0954,0.0954,0.0954,0,-0.0201,-0.0192,-0.0195,-0.0191,-0.0171,-0.0086,-0.0011,0.0101,0.0247,0.0355,0.0508,0.0591,0.0707,0.0739,0.0786,0.0803,0.0823,0.0876,0.0882,0.0951,0.0952,0.1077,0.1106,0.0951,0.0951,0.0952,0.0952,0,-0.0216,-0.0227,-0.0231,-0.0201,-0.0198,-0.0178,-0.0092,-0.0022,0.0128,0.0265,0.0308,0.0491,0.0552,0.0618,0.0697,0.0748,0.0832,0.0786,0.0809,0.0822,0.0916,0.0933,0.0952,0.1014,0.0783,0.0782,0.0781,0,-0.0214,-0.0234,-0.0266,-0.029,-0.0283,-0.0259,-0.0237,-0.0103,-0.0008,0.0217,0.0274,0.0372,0.0522,0.0573,0.0633,0.0678,0.076,0.0772,0.0887,0.0914,0.0939,0.0942,0.0995,0.0949,0.0949,0.095,0.095,0,-0.0199,-0.0233,-0.0249,-0.0327,-0.0348,-0.0341,-0.0285,-0.0229,-0.0032,0.0115,0.0332,0.047,0.0538,0.0684,0.0688,0.0718,0.0855,0.0784,0.0853,0.1097,0.107,0.1135,0.0941,0.0955,0.0955,0.0954,0.0954,0.0954,-0.0185,-0.0217,-0.0278,-0.0334,-0.0373,-0.0361,-0.0299,-0.0198,-0.0033,0.0293,0.0386,0.0698,0.0841,0.0902,0.0843,0.0867,0.0862,0.1,0.1013,0.1008,0.11,0.0858,0.0865,0.0864,0.0863,0.0862,0.0862,0,-0.0161,-0.0211,-0.0273,-0.0332,-0.0357,-0.0374,-0.0276,-0.0147,0.0085,0.0364,0.0645,0.1083,0.1162,0.1172,0.1158,0.1166,0.1172,0.1176,0.1254,0.13,0.1138,0.1184,0.1213,0.1213,0.1213,0.1213,0.1212,0.1212,-0.0151,-0.0211,-0.0255,-0.0295,-0.0319,-0.0253,-0.0166,0.0041,0.0277,0.076,0.1134,0.1408,0.1567,0.1464,0.1401,0.1375,0.1463,0.1407,0.1425,0.1373,0.136,0.1347,0.1399,0.1473,0.1473,0.1648,0.165,0.1651]}],[{"header":{"parameterUnit":"m.s-1","parameterCategory":2,"la1":30.2991,"la2":30.254,"lo1":-89.0895,"lo2":-89.0444,"dy":0.0017,"dx":0.0017,"nx":28,"ny":28,"refTime":"2025-12-27T09:00:00:Z","depth":"2","parameterNumber":2,"parameterNumberName":"U-component_of_CURRENTS"},"data":[0,0,0,0,0,0,0,0,0,0,0,0,0,0,0,0,0,0,0,0,0,0,0,0,0,0,0,0,0,0,0,0,0,0,0,0,0,0,0,0,0,0,0,0,0,0,0,0,0,0,0,0,0,0,0,0,0,0,-0.2562,-0.2562,0,-0.2476,-0.2474,-0.2472,-0.2386,-0.2386,-0.2386,-0.2386,-0.2192,-0.2187,-0.2182,0,0,0,0,0,0,0,0,0,0,0,0,0,-0.25,-0.2502,-0.2562,-0.2562,-0.2562,-0.2476,-0.2474,-0.2472,-0.2386,-0.2386,-0.2386,-0.2386,-0.2193,-0.2187,-0.2181,0,0,0,0,0,0,0,0,0,0,0,0,0,-0.2472,-0.2502,-0.2562,-0.2517,-0.2513,-0.2477,-0.2474,-0.2471,-0.2386,-0.2386,-0.2386,-0.2386,-0.2195,-0.2188,-0.218,-0.2138,0,0,-0.2157,-0.2154,0,0,0,0,0,0,0,0,-0.2474,-0.2473,-0.2523,-0.252,-0.2515,-0.2451,-0.2382,-0.2358,-0.2386,-0.2423,-0.2386,-0.2386,-0.2276,-0.2261,-0.2232,-0.2129,-0.2121,-0.2157,-0.2152,-0.2149,-0.2147,0,0,0,0,0,0,0,-0.2476,-0.2476,-0.2517,-0.2524,-0.2519,-0.245,-0.2445,-0.2376,-0.2341,-0.242,-0.2416,-0.2424,-0.2271,-0.2239,-0.2227,-0.2118,-0.2157,-0.215,-0.2146,-0.2143,-0.2037,-0.2039,0,0,0,0,0,0,-0.2517,-0.2479,-0.252,-0.2515,-0.2506,-0.2452,-0.2447,-0.2463,-0.2344,-0.233,-0.2424,-0.242,-0.2252,-0.2235,-0.2219,-0.2195,-0.2149,-0.2142,-0.2138,-0.2035,-0.2038,-0.2039,0,0,0,0,0,0,-0.2516,-0.2522,-0.2523,-0.2502,-0.2499,-0.2456,-0.2473,-0.2462,-0.2443,-0.2351,-0.2332,-0.242,-0.2252,-0.223,-0.2181,-0.2186,-0.2138,-0.2132,-0.2033,-0.2036,-0.2038,-0.2126,0,0,0,0,0,0,-0.2515,-0.2522,-0.2539,-0.2506,-0.2503,-0.2521,-0.2474,-0.2461,-0.2453,-0.2447,-0.2341,-0.2322,-0.225,-0.2193,-0.2173,-0.2175,-0.2126,-0.2031,-0.2035,-0.2038,-0.2121,-0.2132,-0.2141,0,0,0,0,0,-0.2513,-0.2531,-0.254,-0.2545,-0.253,-0.2523,-0.2513,-0.2472,-0.2453,-0.2451,-0.2388,-0.2325,-0.22,-0.2188,-0.2165,-0.2164,-0.203,-0.2034,-0.2037,-0.2117,-0.213,-0.214,0,0,0,0,0,0,-0.2506,-0.2524,-0.2533,-0.2556,-0.2557,-0.2513,-0.2503,-0.2488,-0.2435,-0.2425,-0.2334,-0.2311,-0.228,-0.2218,-0.2207,-0.215,-0.2109,-0.2109,-0.2178,-0.2189,-0.2199,-0.2167,-0.2119,0,0,0,0,0,-0.2523,-0.2539,-0.2552,-0.2569,-0.2575,-0.2546,-0.2536,-0.2521,-0.248,-0.2456,-0.2392,-0.2326,-0.2275,-0.2231,-0.2182,-0.2132,-0.2056,-0.2125,-0.2134,-0.2142,-0.2106,-0.2014,-0.201,-0.2052,-0.2052,-0.2052,0,0,-0.2523,-0.2538,-0.2546,-0.2569,-0.2557,-0.2557,-0.2535,-0.2536,-0.2522,-0.2442,-0.2395,-0.2362,-0.2278,-0.2237,-0.2216,-0.218,-0.2102,-0.2147,-0.2155,-0.2112,-0.2017,-0.2012,-0.2008,-0.2055,-0.2054,-0.2054,0,0,-0.25,-0.2552,-0.2539,-0.2563,-0.2577,-0.2572,-0.2586,-0.2568,-0.2545,-0.2517,-0.2467,-0.2434,-0.2348,-0.2287,-0.2243,-0.2273,-0.2173,-0.2278,-0.2267,-0.2181,-0.2175,-0.2169,-0.2106,-0.2093,-0.2261,-0.2262,-0.2262,0,-0.2494,-0.2494,-0.2535,-0.2539,-0.255,-0.2587,-0.2575,-0.2572,-0.254,-0.2504,-0.2517,-0.24,-0.236,-0.2271,-0.23,-0.2288,-0.2229,-0.2228,-0.2189,-0.2181,-0.2173,-0.2109,-0.2094,-0.2266,-0.2266,-0.2265,-0.2265,0,-0.2447,-0.2472,-0.2475,-0.2497,-0.2521,-0.253,-0.2558,-0.2565,-0.2563,-0.2535,-0.248,-0.2435,-0.2346,-0.2363,-0.2336,-0.2268,-0.2245,-0.2228,-0.2151,-0.2173,-0.2106,-0.2089,-0.2273,-0.2271,-0.227,-0.2269,0,0,-0.2379,-0.242,-0.2432,-0.2429,-0.2504,-0.2505,-0.2526,-0.251,-0.2484,-0.2481,-0.2407,-0.2379,-0.2357,-0.2309,-0.2286,-0.2227,-0.217,-0.221,-0.2203,-0.2131,-0.1985,-0.1918,-0.1892,-0.2141,-0.2137,-0.2135,-0.1974,0,-0.232,-0.2299,-0.2351,-0.2355,-0.2348,-0.2424,-0.243,-0.2441,-0.2444,-0.2402,-0.2364,-0.2306,-0.2334,-0.2301,-0.2251,-0.2188,-0.212,-0.2215,-0.1985,-0.1978,-0.1901,-0.1868,-0.1766,-0.1607,-0.1956,-0.1953,-0.1951,0,-0.2261,-0.2252,-0.223,-0.2259,-0.2263,-0.2287,-0.2303,-0.2312,-0.2303,-0.2289,-0.2244,-0.2228,-0.2157,-0.2188,-0.2045,-0.2103,-0.2042,-0.1999,-0.1991,-0.1868,-0.1875,-0.1635,-0.1561,-0.192,-0.1922,-0.1925,-0.1927,0,-0.217,-0.2181,-0.215,-0.2174,-0.2214,-0.2214,-0.2238,-0.2264,-0.2247,-0.2217,-0.2182,-0.2114,-0.2051,-0.198,-0.1925,-0.1972,-0.1759,-0.1803,-0.1676,-0.1672,-0.1502,-0.1488,-0.1667,-0.1667,-0.1668,-0.1668,-0.1669,0,-0.2102,-0.2087,-0.2107,-0.2103,-0.2066,-0.2136,-0.211,-0.2129,-0.2132,-0.2075,-0.2107,-0.2018,-0.1993,-0.1894,-0.1864,-0.1699,-0.1694,-0.1638,-0.1603,-0.1539,-0.153,-0.1732,-0.1741,-0.1662,-0.1664,-0.1665,-0.1666,0,-0.2025,-0.2046,-0.2011,-0.2025,-0.2031,-0.2015,-0.2047,-0.2024,-0.2042,-0.1971,-0.1953,-0.1908,-0.177,-0.1737,-0.1599,-0.158,-0.1464,-0.1404,-0.1348,-0.1309,-0.146,-0.1477,-0.1245,-0.1241,-0.1237,-0.1234,-0.1232,0,-0.197,-0.1944,-0.1945,-0.193,-0.1941,-0.1933,-0.1931,-0.197,-0.1949,-0.1875,-0.1813,-0.1692,-0.1568,-0.1369,-0.1292,-0.1181,-0.1286,-0.1058,-0.1126,-0.1415,-0.1406,-0.1428,-0.1449,-0.0957,-0.0952,-0.0949,-0.0946,0,-0.1858,-0.1877,-0.1859,-0.1819,-0.1815,-0.1796,-0.1792,-0.1759,-0.1774,-0.1688,-0.1541,-0.1442,-0.1262,-0.1088,-0.0986,-0.0925,-0.1084,-0.0978,-0.122,-0.1096,-0.1133,-0.1129,-0.116,-0.0913,-0.0916,-0.0918,-0.092,-0.0921,-0.1786,-0.1749,-0.1734,-0.1694,-0.1686,-0.1646,-0.1578,-0.1545,-0.1451,-0.1299,-0.1295,-0.1108,-0.1078,-0.0836,-0.0746,-0.0691,-0.078,-0.0796,-0.0811,-0.0829,-0.084,-0.0871,-0.0604,-0.0605,-0.0606,-0.0608,-0.0609,0,-0.1668,-0.1641,-0.1598,-0.1555,-0.1496,-0.1533,-0.1464,-0.1342,-0.1151,-0.1078,-0.093,-0.0784,-0.0658,-0.0636,-0.0485,-0.046,-0.049,-0.046,-0.0523,-0.0553,-0.0581,-0.0585,-0.0278,-0.0277,-0.0276,-0.0276,0,0,-0.1609,-0.1536,-0.1512,-0.138,-0.1345,-0.1215,-0.1145,-0.0939,-0.0833,-0.0635,-0.0563,-0.0602,-0.0619,-0.0473,-0.0415,-0.0322,-0.0441,-0.0294,-0.0553,-0.0656,-0.0683,-0.0757,-0.0793,0,0,0,0,0]},{"header":{"parameterUnit":"m.s-1","parameterCategory":2,"la1":30.2991,"la2":30.254,"lo1":-89.0895,"lo2":-89.0444,"dy":0.0017,"dx":0.0017,"nx":28,"ny":28,"refTime":"2025-12-27T09:00:00:Z","depth":"2","parameterNumber":3,"parameterNumberName":"V-component_of_CURRENTS"},"data":[0,0,0,0,0,0,0,0,0,0,0,0,0,0,0,0,0,0,0,0,0,0,0,0,0,0,0,0,0,0,0,0,0,0,0,0,0,0,0,0,0,0,0,0,0,0,0,0,0,0,0,0,0,0,0,0,0,0,0.0186,0.0189,0,0.0403,0.0405,0.0407,0.0506,0.0506,0.0506,0.0506,0.0574,0.0576,0.0577,0,0,0,0,0,0,0,0,0,0,0,0,0,-0.0096,-0.0092,0.0186,0.0189,0.0192,0.0403,0.0405,0.0408,0.0506,0.0506,0.0506,0.0506,0.0573,0.0575,0.0577,0,0,0,0,0,0,0,0,0,0,0,0,0,0.0061,-0.0091,0.0186,0.0268,0.0278,0.0402,0.0405,0.0409,0.0506,0.0506,0.0506,0.0506,0.0572,0.0575,0.0578,0.0594,0,0,0.0586,0.0587,0,0,0,0,0,0,0,0,0.0052,0.0071,0.0253,0.0263,0.0274,0.043,0.0331,0.0464,0.0506,0.0416,0.0506,0.0506,0.0513,0.0521,0.056,0.0597,0.06,0.0586,0.0588,0.0589,0.059,0,0,0,0,0,0,0,0.0041,0.0063,0.0269,0.0256,0.0269,0.0311,0.0332,0.0358,0.0457,0.0424,0.0432,0.0461,0.0518,0.0557,0.0562,0.0601,0.0586,0.0589,0.059,0.0591,0.0696,0.0697,0,0,0,0,0,0,0.0018,0.0053,0.0263,0.0276,0.0164,0.0316,0.034,0.0377,0.0461,0.0475,0.0461,0.0465,0.0553,0.0559,0.0565,0.0612,0.0589,0.0592,0.0593,0.0695,0.0696,0.0697,0,0,0,0,0,0,0.0011,0.0035,0.0254,0.017,0.0202,0.032,0.0362,0.0382,0.0431,0.049,0.0502,0.049,0.0553,0.0561,0.0608,0.0614,0.0593,0.0595,0.0693,0.0695,0.0697,0.0692,0,0,0,0,0,0,0.0002,0.0031,0.0048,0.0169,0.0206,0.0323,0.0363,0.0386,0.0449,0.0457,0.0519,0.0526,0.0554,0.0604,0.0611,0.0618,0.0597,0.0692,0.0694,0.0696,0.069,0.0693,0.0695,0,0,0,0,0,-0.0008,0.0002,0.0047,0.0073,0.0225,0.0324,0.0345,0.0428,0.045,0.0471,0.0526,0.0524,0.0622,0.0608,0.0616,0.0623,0.0691,0.0693,0.0696,0.0689,0.0693,0.0695,0,0,0,0,0,0,-0.0116,0.0018,0.0069,0.012,0.0217,0.0341,0.0364,0.0428,0.0493,0.0493,0.0544,0.0556,0.0603,0.0615,0.0598,0.0661,0.0654,0.0658,0.0646,0.0649,0.0652,0.0602,0.06,0,0,0,0,0,-0.013,-0.0084,0.0051,0.0091,0.0133,0.0251,0.03,0.0365,0.0442,0.0473,0.0526,0.0573,0.062,0.0635,0.0678,0.0706,0.0694,0.0715,0.0718,0.072,0.0686,0.0721,0.0723,0.0706,0.0706,0.0706,0,0,-0.0163,-0.0081,-0.0057,0.0071,0.0147,0.0203,0.0279,0.0352,0.0401,0.0464,0.0527,0.0587,0.0633,0.0681,0.07,0.0688,0.0714,0.0723,0.0724,0.0689,0.0724,0.0726,0.0727,0.0708,0.0707,0.0707,0,0,-0.0225,-0.0133,-0.0124,-0.0042,0.0078,0.0164,0.0183,0.0317,0.0374,0.0453,0.0514,0.0581,0.0645,0.0695,0.072,0.0757,0.0735,0.0766,0.0727,0.0763,0.0764,0.0765,0.0726,0.0724,0.0757,0.0757,0.0757,0,-0.0275,-0.0226,-0.0108,-0.0072,-0.0016,0.0138,0.016,0.0252,0.0388,0.0431,0.0461,0.0601,0.065,0.0709,0.0726,0.076,0.0745,0.0712,0.0764,0.0764,0.0765,0.0726,0.0723,0.0757,0.0757,0.0757,0.0757,0,-0.0324,-0.0276,-0.0265,-0.0162,-0.0088,-0.0037,0.0107,0.0191,0.0283,0.0375,0.0472,0.0569,0.0644,0.0682,0.071,0.0747,0.0722,0.0771,0.0748,0.0766,0.0724,0.0721,0.0757,0.0757,0.0757,0.0757,0,0,-0.0435,-0.033,-0.0317,-0.0285,-0.0128,-0.0068,0.0019,0.0144,0.0204,0.0339,0.0396,0.0516,0.0585,0.0618,0.0686,0.0713,0.0717,0.0726,0.0728,0.067,0.0729,0.0732,0.0729,0.0774,0.0774,0.0774,0.0687,0,-0.0505,-0.0484,-0.0401,-0.0357,-0.0322,-0.0164,-0.0094,0.0044,0.0171,0.0272,0.0398,0.0481,0.0558,0.0597,0.0644,0.071,0.0711,0.073,0.0733,0.0731,0.0721,0.0728,0.0718,0.0643,0.0684,0.0683,0.0683,0,-0.0555,-0.0532,-0.0522,-0.0431,-0.0405,-0.0349,-0.0191,-0.0106,0.0077,0.0159,0.0279,0.0387,0.0473,0.0533,0.0621,0.0625,0.0655,0.0694,0.0694,0.0689,0.0731,0.064,0.0635,0.0678,0.0678,0.0679,0.0679,0,-0.0641,-0.0598,-0.0597,-0.0559,-0.0438,-0.0398,-0.0314,-0.0132,-0.0062,0.0101,0.0139,0.0289,0.0349,0.0435,0.0545,0.0574,0.0605,0.067,0.0685,0.0682,0.0668,0.0665,0.0693,0.0694,0.0694,0.0694,0.0694,0,-0.0698,-0.0688,-0.0635,-0.0613,-0.0591,-0.0476,-0.0406,-0.0292,-0.0164,-0.01,0.0073,0.0122,0.0327,0.04,0.049,0.0566,0.0569,0.065,0.067,0.0664,0.0663,0.0699,0.0701,0.0691,0.0691,0.0692,0.0693,0,-0.0738,-0.0714,-0.0702,-0.0637,-0.0613,-0.0573,-0.0465,-0.041,-0.03,-0.0221,-0.0187,-0.0015,0.0103,0.0267,0.04,0.0483,0.0565,0.058,0.0524,0.0541,0.0616,0.0619,0.0583,0.0583,0.0583,0.0583,0.0582,0,-0.0752,-0.0752,-0.0718,-0.0706,-0.0667,-0.0609,-0.0561,-0.0458,-0.0413,-0.0306,-0.0296,-0.0162,-0.0031,0.0148,0.034,0.0484,0.0519,0.0513,0.0599,0.0586,0.0609,0.0613,0.0616,0.0553,0.0552,0.0552,0.0551,0,-0.0774,-0.0761,-0.075,-0.0733,-0.0702,-0.0677,-0.0621,-0.0631,-0.0522,-0.0487,-0.0422,-0.0318,-0.0087,0.0131,0.0334,0.0417,0.0509,0.051,0.052,0.06,0.0556,0.058,0.0584,0.0548,0.0549,0.0549,0.0549,0.0549,-0.0787,-0.0786,-0.0775,-0.0755,-0.0731,-0.0732,-0.073,-0.0705,-0.0682,-0.0596,-0.0513,-0.032,-0.0114,0.0241,0.0344,0.0472,0.0503,0.0539,0.054,0.0542,0.0572,0.0533,0.052,0.0521,0.0521,0.0521,0.0521,0,-0.0819,-0.0808,-0.0795,-0.0783,-0.0782,-0.0746,-0.0757,-0.0751,-0.0756,-0.0608,-0.05,-0.0259,-0.0013,0.0208,0.0418,0.051,0.0516,0.0508,0.0512,0.0515,0.0518,0.0548,0.0489,0.0489,0.0489,0.0489,0,0,-0.0833,-0.0844,-0.0837,-0.084,-0.0816,-0.0818,-0.0836,-0.0814,-0.0723,-0.0598,-0.0413,-0.0179,0.0069,0.0195,0.0313,0.042,0.0433,0.0414,0.0433,0.0427,0.0428,0.0533,0.0582,0,0,0,0,0]}],[{"header":{"parameterUnit":"m.s-1","parameterCategory":2,"la1":30.2991,"la2":30.254,"lo1":-89.0895,"lo2":-89.0444,"dy":0.0017,"dx":0.0017,"nx":28,"ny":28,"refTime":"2025-12-27T09:00:00:Z","depth":"4","parameterNumber":2,"parameterNumberName":"U-component_of_CURRENTS"},"data":[0,0,0,0,0,0,0,0,0,0,0,0,0,0,0,0,0,0,0,0,0,0,0,0,0,0,0,0,0,0,0,0,0,0,0,0,0,0,0,0,0,0,0,0,0,0,0,0,0,0,0,0,0,0,0,0,0,0,-0.063,-0.063,0,-0.0651,-0.0651,-0.0652,-0.0699,-0.07,-0.0701,-0.0702,-0.0812,-0.0814,-0.0816,0,0,0,0,0,0,0,0,0,0,0,0,0,-0.0564,-0.0565,-0.063,-0.063,-0.063,-0.0651,-0.0651,-0.0652,-0.0699,-0.07,-0.0701,-0.0703,-0.0812,-0.0814,-0.0816,0,0,0,0,0,0,0,0,0,0,0,0,0,-0.0589,-0.0566,-0.063,-0.0657,-0.066,-0.0651,-0.0651,-0.0652,-0.0698,-0.07,-0.0702,-0.0703,-0.0811,-0.0814,-0.0817,-0.0802,0,0,-0.0826,-0.0827,0,0,0,0,0,0,0,0,-0.0587,-0.0591,-0.0653,-0.0655,-0.0659,-0.0675,-0.0669,-0.0707,-0.0698,-0.0683,-0.0702,-0.0704,-0.0774,-0.078,-0.0778,-0.0807,-0.0812,-0.0826,-0.0828,-0.0829,-0.083,0,0,0,0,0,0,0,-0.0586,-0.059,-0.0637,-0.0653,-0.0657,-0.0646,-0.0652,-0.0675,-0.072,-0.0684,-0.0688,-0.0692,-0.0777,-0.0775,-0.0781,-0.0814,-0.0826,-0.0828,-0.083,-0.0831,-0.093,-0.093,0,0,0,0,0,0,-0.0587,-0.0589,-0.0636,-0.0638,-0.0628,-0.0647,-0.0653,-0.0667,-0.0718,-0.0727,-0.069,-0.0694,-0.0769,-0.0778,-0.0785,-0.0874,-0.0829,-0.0832,-0.0833,-0.0929,-0.093,-0.0931,0,0,0,0,0,0,-0.0586,-0.0592,-0.0635,-0.0614,-0.0619,-0.0647,-0.0662,-0.0667,-0.0691,-0.0722,-0.0733,-0.0712,-0.0771,-0.0781,-0.0846,-0.0875,-0.0833,-0.0835,-0.0928,-0.0929,-0.093,-0.0985,0,0,0,0,0,0,-0.0584,-0.0591,-0.0598,-0.0614,-0.062,-0.0656,-0.066,-0.0666,-0.0689,-0.0695,-0.0744,-0.0754,-0.0773,-0.0842,-0.0849,-0.0878,-0.0838,-0.0927,-0.0928,-0.093,-0.0982,-0.0988,-0.0993,0,0,0,0,0,-0.0582,-0.0578,-0.0598,-0.0603,-0.063,-0.0657,-0.066,-0.0682,-0.0689,-0.0708,-0.075,-0.0754,-0.0857,-0.0846,-0.0854,-0.0884,-0.0926,-0.0928,-0.093,-0.098,-0.0987,-0.0993,0,0,0,0,0,0,-0.0548,-0.0584,-0.0605,-0.0613,-0.0649,-0.0666,-0.0674,-0.0691,-0.0732,-0.0744,-0.0773,-0.0787,-0.086,-0.0856,-0.0842,-0.0914,-0.0888,-0.0891,-0.0923,-0.093,-0.0935,-0.0893,-0.084,0,0,0,0,0,-0.0545,-0.0563,-0.0598,-0.0612,-0.0627,-0.0655,-0.0665,-0.0689,-0.0725,-0.0744,-0.0779,-0.0816,-0.0865,-0.0887,-0.0927,-0.096,-0.0941,-0.098,-0.0986,-0.0991,-0.096,-0.097,-0.0973,-0.0937,-0.0937,-0.0937,0,0,-0.0538,-0.0559,-0.057,-0.0607,-0.0631,-0.066,-0.0666,-0.0696,-0.0725,-0.075,-0.0803,-0.0848,-0.0883,-0.0939,-0.0966,-0.0943,-0.0996,-0.0993,-0.0997,-0.0963,-0.0972,-0.0976,-0.0979,-0.0939,-0.0938,-0.0938,0,0,-0.054,-0.0554,-0.0578,-0.0605,-0.0649,-0.0666,-0.0682,-0.072,-0.0745,-0.0808,-0.0835,-0.0883,-0.0957,-0.0972,-0.0994,-0.1041,-0.1037,-0.1069,-0.1053,-0.1065,-0.1067,-0.1069,-0.1068,-0.1069,-0.1058,-0.1058,-0.1058,0,-0.0531,-0.0565,-0.0589,-0.062,-0.0636,-0.0674,-0.0703,-0.0731,-0.0789,-0.0806,-0.084,-0.0926,-0.0963,-0.1001,-0.103,-0.1051,-0.1059,-0.1032,-0.1071,-0.1072,-0.1073,-0.1072,-0.1072,-0.1061,-0.106,-0.106,-0.106,0,-0.0558,-0.0586,-0.0599,-0.0654,-0.0676,-0.0703,-0.0746,-0.0779,-0.082,-0.0846,-0.0911,-0.0958,-0.0996,-0.1029,-0.1055,-0.1078,-0.1085,-0.1092,-0.1053,-0.108,-0.1077,-0.1077,-0.1065,-0.1064,-0.1063,-0.1062,0,0,-0.0531,-0.0605,-0.061,-0.0637,-0.0692,-0.0709,-0.0757,-0.0799,-0.0824,-0.0886,-0.0919,-0.0992,-0.1003,-0.1022,-0.105,-0.1057,-0.1093,-0.1082,-0.1081,-0.1077,-0.1123,-0.1042,-0.1033,-0.1127,-0.1127,-0.1127,-0.1125,0,-0.0548,-0.0601,-0.0635,-0.068,-0.0704,-0.0743,-0.0777,-0.0818,-0.0869,-0.0912,-0.0941,-0.0999,-0.1005,-0.1044,-0.1047,-0.1102,-0.1092,-0.1091,-0.1097,-0.1096,-0.1018,-0.1029,-0.1126,-0.1124,-0.1124,-0.1124,-0.1124,0,-0.0553,-0.0591,-0.0637,-0.0685,-0.0699,-0.073,-0.0773,-0.0819,-0.0877,-0.0911,-0.0945,-0.0992,-0.1018,-0.103,-0.106,-0.1073,-0.1084,-0.1104,-0.1105,-0.0997,-0.1012,-0.1086,-0.1123,-0.1123,-0.1123,-0.1123,-0.1123,0,-0.0504,-0.0576,-0.0609,-0.0628,-0.0698,-0.0721,-0.0761,-0.0817,-0.0849,-0.0918,-0.0955,-0.0984,-0.1031,-0.104,-0.1084,-0.1092,-0.1116,-0.1131,-0.1044,-0.1039,-0.109,-0.1088,-0.1112,-0.1112,-0.1112,-0.1112,-0.1112,0,-0.0485,-0.0512,-0.0591,-0.0609,-0.0638,-0.0699,-0.0736,-0.078,-0.0843,-0.0869,-0.0949,-0.0978,-0.1046,-0.108,-0.1086,-0.1058,-0.1109,-0.102,-0.1025,-0.1117,-0.1117,-0.1091,-0.1089,-0.1112,-0.1112,-0.1112,-0.1112,0,-0.0438,-0.0488,-0.0526,-0.0599,-0.0619,-0.0646,-0.0717,-0.0738,-0.0817,-0.086,-0.0888,-0.0993,-0.1031,-0.1063,-0.11,-0.1062,-0.1048,-0.1017,-0.1104,-0.1118,-0.0962,-0.0962,-0.0915,-0.0912,-0.091,-0.0908,-0.0906,0,-0.043,-0.0446,-0.0507,-0.0516,-0.0556,-0.0604,-0.0623,-0.0705,-0.0723,-0.0851,-0.0853,-0.095,-0.0993,-0.0981,-0.1021,-0.0992,-0.0975,-0.0964,-0.0949,-0.0928,-0.0938,-0.0943,-0.0947,-0.0902,-0.0901,-0.09,-0.09,0,-0.0416,-0.0432,-0.0458,-0.0473,-0.0493,-0.0514,-0.0554,-0.056,-0.0652,-0.073,-0.0799,-0.0852,-0.089,-0.0927,-0.0912,-0.0893,-0.0977,-0.0937,-0.0942,-0.0927,-0.0911,-0.0925,-0.0932,-0.0891,-0.0892,-0.0893,-0.0893,0,-0.0394,-0.0402,-0.0421,-0.0428,-0.0436,-0.0425,-0.0457,-0.0487,-0.0529,-0.0659,-0.0682,-0.0787,-0.0878,-0.0874,-0.0862,-0.0835,-0.0815,-0.0792,-0.0804,-0.0814,-0.0781,-0.0745,-0.0658,0,0,0,0,0,-0.0374,-0.0372,-0.0376,-0.0369,-0.0364,-0.037,-0.0404,-0.0438,-0.0522,-0.0535,-0.0606,-0.0636,-0.0681,-0.0752,-0.0696,-0.0784,-0.0795,-0.0716,-0.0769,-0.084,-0.0851,-0.082,0,0,0,0,0,0,-0.0358,-0.0361,-0.0364,-0.0316,-0.0291,-0.0285,-0.0301,-0.0355,-0.0368,-0.0469,-0.0497,-0.0582,-0.0626,-0.069,-0.0682,-0.0689,-0.0704,-0.0769,-0.0766,-0.0834,-0.0844,-0.0852,-0.0824,0,0,0,0,0]},{"header":{"parameterUnit":"m.s-1","parameterCategory":2,"la1":30.2991,"la2":30.254,"lo1":-89.0895,"lo2":-89.0444,"dy":0.0017,"dx":0.0017,"nx":28,"ny":28,"refTime":"2025-12-27T09:00:00:Z","depth":"4","parameterNumber":3,"parameterNumberName":"V-component_of_CURRENTS"},"data":[0,0,0,0,0,0,0,0,0,0,0,0,0,0,0,0,0,0,0,0,0,0,0,0,0,0,0,0,0,0,0,0,0,0,0,0,0,0,0,0,0,0,0,0,0,0,0,0,0,0,0,0,0,0,0,0,0,0,-0.0642,-0.0642,0,-0.0625,-0.0624,-0.0624,-0.0616,-0.0616,-0.0616,-0.0616,-0.0649,-0.065,-0.065,0,0,0,0,0,0,0,0,0,0,0,0,0,-0.0614,-0.0614,-0.0642,-0.0642,-0.0642,-0.0625,-0.0624,-0.0624,-0.0616,-0.0616,-0.0616,-0.0616,-0.0649,-0.0649,-0.065,0,0,0,0,0,0,0,0,0,0,0,0,0,-0.0612,-0.0615,-0.0642,-0.0638,-0.0638,-0.0625,-0.0624,-0.0624,-0.0616,-0.0616,-0.0616,-0.0617,-0.0648,-0.0649,-0.065,-0.0649,0,0,-0.0653,-0.0654,0,0,0,0,0,0,0,0,-0.0612,-0.0613,-0.0639,-0.0638,-0.0638,-0.0625,-0.0626,-0.0636,-0.0615,-0.0621,-0.0616,-0.0617,-0.0647,-0.0648,-0.064,-0.0651,-0.0652,-0.0653,-0.0654,-0.0654,-0.0655,0,0,0,0,0,0,0,-0.0612,-0.0613,-0.0633,-0.0639,-0.0638,-0.0618,-0.0618,-0.0627,-0.0631,-0.0621,-0.0621,-0.0623,-0.0647,-0.0639,-0.0641,-0.0653,-0.0653,-0.0654,-0.0655,-0.0655,-0.0683,-0.0683,0,0,0,0,0,0,-0.0622,-0.0614,-0.0634,-0.0633,-0.0628,-0.0619,-0.0619,-0.0627,-0.063,-0.0631,-0.0622,-0.0622,-0.0637,-0.064,-0.0642,-0.0664,-0.0654,-0.0655,-0.0656,-0.0683,-0.0683,-0.0683,0,0,0,0,0,0,-0.0622,-0.0624,-0.0634,-0.0624,-0.0624,-0.062,-0.0628,-0.0626,-0.0632,-0.0631,-0.0633,-0.0631,-0.0637,-0.0641,-0.0654,-0.0665,-0.0656,-0.0657,-0.0682,-0.0683,-0.0683,-0.0695,0,0,0,0,0,0,-0.0621,-0.0624,-0.0636,-0.0625,-0.0626,-0.0632,-0.0628,-0.0626,-0.0633,-0.0633,-0.064,-0.0642,-0.0638,-0.0653,-0.0655,-0.0666,-0.0657,-0.0682,-0.0683,-0.0683,-0.0694,-0.0696,-0.0697,0,0,0,0,0,-0.062,-0.0629,-0.0637,-0.0639,-0.0641,-0.0632,-0.063,-0.0625,-0.0633,-0.0632,-0.0638,-0.0642,-0.0656,-0.0654,-0.0656,-0.0668,-0.0682,-0.0682,-0.0683,-0.0694,-0.0695,-0.0697,0,0,0,0,0,0,-0.0619,-0.0629,-0.0637,-0.0649,-0.0646,-0.0632,-0.0634,-0.0635,-0.0637,-0.0644,-0.0645,-0.0647,-0.0663,-0.0663,-0.066,-0.0676,-0.067,-0.0671,-0.0677,-0.0679,-0.068,-0.0675,-0.0658,0,0,0,0,0,-0.0627,-0.0643,-0.0641,-0.0654,-0.0654,-0.0649,-0.0648,-0.0647,-0.0646,-0.0647,-0.0649,-0.0655,-0.0663,-0.067,-0.0673,-0.0684,-0.0639,-0.0693,-0.0694,-0.0695,-0.0693,-0.0628,-0.0623,-0.0684,-0.0684,-0.0684,0,0,-0.0633,-0.0641,-0.0651,-0.0656,-0.0655,-0.0655,-0.0649,-0.0652,-0.0656,-0.0652,-0.066,-0.0662,-0.0667,-0.0675,-0.0682,-0.0679,-0.0649,-0.0695,-0.0696,-0.0693,-0.0628,-0.0622,-0.0616,-0.0684,-0.0684,-0.0684,0,0,-0.0639,-0.0657,-0.0666,-0.0668,-0.0673,-0.0668,-0.0674,-0.0666,-0.0667,-0.0677,-0.0673,-0.0675,-0.0693,-0.0683,-0.0686,-0.0696,-0.0658,-0.0708,-0.0711,-0.0649,-0.0643,-0.0637,-0.0547,-0.0533,-0.0708,-0.0708,-0.0708,0,-0.0645,-0.0659,-0.0666,-0.0671,-0.0676,-0.0678,-0.0681,-0.0681,-0.0678,-0.0677,-0.0686,-0.0688,-0.0693,-0.0691,-0.0696,-0.0698,-0.0647,-0.0707,-0.0648,-0.0642,-0.0636,-0.0545,-0.0529,-0.0709,-0.0708,-0.0708,-0.0708,0,-0.065,-0.0668,-0.0672,-0.0686,-0.0689,-0.0694,-0.0695,-0.0698,-0.0708,-0.0703,-0.0706,-0.0701,-0.0698,-0.0704,-0.071,-0.0677,-0.0647,-0.0656,-0.0642,-0.063,-0.0535,-0.0518,-0.0709,-0.0709,-0.0709,-0.0709,0,0,-0.0648,-0.0671,-0.0677,-0.0688,-0.0699,-0.07,-0.071,-0.0708,-0.0714,-0.0714,-0.0705,-0.0718,-0.0708,-0.071,-0.0705,-0.0661,-0.057,-0.0646,-0.0642,-0.055,-0.0404,-0.0389,-0.0369,-0.0568,-0.0566,-0.0564,-0.0346,0,-0.065,-0.0667,-0.0677,-0.0696,-0.0702,-0.0711,-0.072,-0.0723,-0.0726,-0.0716,-0.0705,-0.07,-0.0713,-0.0709,-0.0668,-0.0591,-0.0532,-0.0627,-0.0435,-0.0429,-0.0413,-0.0353,-0.0558,-0.0333,-0.0329,-0.0326,-0.0324,0,-0.0648,-0.0662,-0.0679,-0.0704,-0.0708,-0.0723,-0.0734,-0.0743,-0.0732,-0.0727,-0.0713,-0.0701,-0.0639,-0.0659,-0.0505,-0.0563,-0.0489,-0.043,-0.042,-0.0393,-0.0385,-0.0354,-0.0294,-0.0296,-0.0299,-0.0301,-0.0303,0,-0.0636,-0.0664,-0.0681,-0.0691,-0.0715,-0.0729,-0.0745,-0.075,-0.0752,-0.0727,-0.071,-0.0651,-0.0596,-0.0509,-0.039,-0.044,-0.0199,-0.0248,-0.0159,-0.0155,-0.0229,-0.0238,-0.0139,-0.0139,-0.014,-0.0141,-0.0141,0,-0.0629,-0.0648,-0.0685,-0.0694,-0.0719,-0.0739,-0.0759,-0.0762,-0.0756,-0.0744,-0.0717,-0.0667,-0.0557,-0.0423,-0.0343,-0.0169,-0.0148,-0.0133,-0.0096,-0.0237,-0.0249,-0.0215,-0.0227,-0.0132,-0.0134,-0.0136,-0.0137,0,-0.0618,-0.064,-0.0665,-0.0701,-0.0715,-0.074,-0.0772,-0.078,-0.0772,-0.0747,-0.0732,-0.0626,-0.0446,-0.0316,-0.0121,-0.0085,0.0059,0.0108,0.0001,0.0024,0.0049,0.0034,0.0225,0.0227,0.0229,0.0231,0.0232,0,-0.0613,-0.0624,-0.0671,-0.069,-0.0714,-0.0751,-0.0771,-0.0785,-0.0785,-0.0719,-0.069,-0.052,-0.044,-0.0114,-0.0004,0.0201,0.0185,0.0262,0.009,0.0071,0.0088,0.0069,0.0052,0.0236,0.0236,0.0237,0.0237,0,-0.06,-0.0625,-0.0648,-0.0687,-0.0719,-0.0749,-0.0777,-0.0768,-0.0768,-0.0754,-0.0624,-0.0495,-0.0275,-0.0084,0.0102,0.0216,0.0208,0.0281,0.0275,0.0114,0.0086,0.0096,0.0077,0.0244,0.0243,0.0242,0.0242,0,-0.0593,-0.0613,-0.0644,-0.068,-0.0721,-0.074,-0.0753,-0.0731,-0.0721,-0.0663,-0.0599,-0.0412,-0.0292,-0.007,0.0093,0.0229,0.02,0.0172,0.017,0.0164,0.0046,-0.0005,0.0184,0,0,0,0,0,-0.0576,-0.0597,-0.063,-0.0667,-0.0711,-0.0734,-0.0752,-0.0759,-0.0749,-0.0658,-0.0637,-0.0448,-0.0209,-0.0086,0.0055,0.0093,0.0214,0.0254,0.0177,0.0283,0.0275,0.0143,0,0,0,0,0,0,-0.0566,-0.0595,-0.062,-0.0655,-0.0681,-0.072,-0.0734,-0.0725,-0.067,-0.0639,-0.0485,-0.0451,-0.0185,-0.0274,0.0053,0.0093,0.0049,0.0367,0.0369,0.0287,0.028,0.0273,0.0135,0,0,0,0,0]}]]